#timestamp,LO_Frequency,Hit,StdDev 
1507716015.7,286047003.2,N
1507716035.5,286047003.9,N
1507716055.4,286047003.2,N
1507716075.2,286047000.6,N
1507716095.0,286047002.8,N
1507716095.9,286047002.8,N
1507716115.8,286047001.7,N
1507716135.6,286046996.1,N
1507716155.4,286046995.9,N
1507716175.3,286046998.0,N
1507716195.1,286046999.5,N
1507716196.0,286046999.5,N
1507716215.8,286046997.4,N
1507716235.7,286046999.3,N
1507716255.5,286047003.8,N
1507716275.3,286047001.5,N
1507716295.1,286047003.9,N
1507716315.9,286047005.7,N
1507716335.7,286047000.1,N
1507716355.5,286047002.3,N
1507716375.4,286047003.8,N
1507716395.2,286047000.4,N
1507716415.0,286047006.0,N
1507716415.9,286047006.0,N
1507716435.8,286047003.2,N
1507716455.6,286047002.9,N
1507716475.4,286047002.5,N
1507716495.3,286046999.6,N
1507716515.1,286046997.6,N
1507716516.0,286046997.6,N
1507716535.8,286047000.3,N
1507716555.7,286047001.5,N
1507716575.5,286046998.7,N
1507716595.3,286046998.3,N
1507716615.2,286046999.2,N
1507716635.9,286046997.3,N
1507716655.7,286046997.5,N
1507716675.5,286046998.1,N
1507716695.4,286046999.0,N
1507716715.2,286046998.9,N
1507716735.0,286046997.8,N
1507716735.9,286046997.8,N
1507716755.8,286046996.6,N
1507716775.6,286046996.0,N
1507716795.4,286046997.9,N
1507716815.3,286046996.6,N
1507716835.1,286046997.7,N
1507716855.8,286047001.6,N
1507716875.7,286047001.8,N
1507716895.5,286047002.0,N
1507716915.3,286047001.4,N
1507716935.2,286047007.2,N
1507716955.9,286047006.3,N
1507716975.7,286047002.9,N
1507716995.6,286047004.0,N
1507717015.4,286047004.4,N
1507717035.2,286047005.3,N
1507717055.1,286047005.0,N
1507717056.0,286047005.0,N
1507717075.8,286047008.9,N
1507717095.6,286047013.9,Y
1507717115.5,286047008.6,P
1507717135.3,286047004.6,N
1507717155.1,286047008.3,N
1507717175.9,286047012.1,Y
1507717195.7,286047001.5,P
1507717215.5,286046999.0,N
1507717235.4,286046998.4,N
1507717255.2,286046998.6,N
1507717275.0,286047000.2,N
1507717275.9,286047000.2,N
1507717295.8,286047001.9,N
1507717315.6,286047000.5,N
1507717335.4,286046996.6,N
1507717355.2,286046997.9,N
1507717375.1,286046997.8,N
1507717376.0,286046997.8,N
1507717395.8,286046996.8,N
1507717415.6,286046999.5,N
1507717435.5,286046997.8,N
1507717455.3,286046997.1,N
1507717475.1,286046995.4,N
1507717495.9,286046989.6,Y
1507717515.7,286046990.4,P
1507717535.5,286046995.4,N
1507717555.4,286046995.0,N
1507717575.2,286046995.6,N
1507717595.0,286046995.9,N
1507717595.9,286046995.9,N
1507717615.8,286046995.8,N
1507717635.6,286046996.1,N
1507717655.4,286047000.6,N
1507717675.3,286046996.8,N
1507717695.1,286047002.3,N
1507717696.0,286047002.3,N
1507717715.8,286047003.3,N
1507717735.7,286047000.0,N
1507717755.5,286046996.8,N
1507717775.3,286046992.5,N
1507717795.1,286046992.0,N
1507717815.9,286046995.3,N
1507717835.7,286046992.5,N
1507717855.5,286046993.7,N
1507717875.4,286046995.2,N
1507717895.2,286047001.2,N
1507717915.0,286046997.3,N
1507717915.9,286046997.3,N
1507717935.8,286046996.9,N
1507717955.6,286046992.2,N
1507717975.4,286046988.8,Y
1507717995.3,286046993.6,P
1507718015.1,286046995.6,N
1507718016.0,286046995.6,P
1507718035.8,286046997.7,N
1507718055.7,286046996.5,N
1507718075.5,286046997.5,N
1507718095.3,286046997.5,N
1507718115.2,286046994.6,Y
1507718135.9,286047002.2,P
1507718155.7,286047001.6,N
1507718175.6,286047000.9,N
1507718195.4,286046998.2,N
1507718215.2,286046999.9,N
1507718235.1,286047000.3,N
1507718236.0,286047000.3,N
1507718255.8,286047002.1,N
1507718275.6,286047005.5,Y
1507718295.5,286047007.4,P
1507718315.3,286047004.0,N
1507718335.1,286047001.1,N
1507718355.8,286047005.6,N
1507718375.7,286047002.1,N
1507718395.5,286047001.2,N
1507718415.3,286046998.6,N
1507718435.2,286046999.4,N
1507718455.9,286047001.5,N
1507718475.7,286047000.9,N
1507718495.6,286046998.2,N
1507718515.4,286046998.7,N
1507718535.2,286046997.6,N
1507718555.1,286046995.1,N
1507718556.0,286046995.1,N
1507718575.8,286046994.9,N
1507718595.6,286047000.5,N
1507718615.5,286046996.7,N
1507718635.3,286046998.0,N
1507718655.1,286046998.6,N
1507718675.9,286047004.0,N
1507718695.7,286047003.2,N
1507718715.5,286047004.0,N
1507718735.3,286047003.3,N
1507718755.2,286046999.7,N
1507718775.0,286047000.7,N
1507718775.9,286047000.7,N
1507718795.7,286047002.2,N
1507718815.6,286047002.5,N
1507718835.4,286047003.9,N
1507718855.2,286047008.5,N
1507718875.1,286047007.9,N
1507718876.0,286047007.9,N
1507718895.8,286047005.6,N
1507718915.6,286047004.4,N
1507718935.5,286047004.3,N
1507718955.3,286047001.7,N
1507718975.1,286047001.1,N
1507718995.9,286047004.3,N
1507719015.7,286047003.1,N
1507719035.5,286047004.1,N
1507719055.4,286047002.5,N
1507719075.2,286047005.7,N
1507719095.0,286047002.2,N
1507719095.9,286047002.2,N
1507719115.8,286047002.3,N
1507719135.6,286046999.8,N
1507719155.4,286047001.3,N
1507719175.3,286046998.9,N
1507719195.1,286046997.5,N
1507719196.0,286046997.5,N
1507719215.8,286046995.3,N
1507719235.6,286047002.4,N
1507719255.5,286046997.1,N
1507719275.3,286046999.4,N
1507719295.1,286047000.7,N
1507719315.9,286046998.2,N
1507719335.7,286047001.0,N
1507719355.5,286047001.3,N
1507719375.4,286046999.7,N
1507719395.2,286046998.5,N
1507719415.0,286047000.5,N
1507719415.9,286047000.5,N
1507719435.8,286047000.8,N
1507719455.6,286046997.5,N
1507719475.4,286046995.4,N
1507719495.3,286046996.9,N
1507719515.1,286046998.0,N
1507719516.0,286046998.0,N
1507719535.8,286046998.4,N
1507719555.7,286047001.8,N
1507719575.5,286047002.2,N
1507719595.3,286047000.3,N
